GFSWCAN_250_rhum_024.txt.gz
RH
72 62 60 65 61 43 63 90 96 100 99 96 89 99 94 96 100 98 79 73 92 100 94 100 100 100 100 86 84 87 95 92 84 78 75 66 64 66 74 82 90 80 58 58 51 56 70 100 99 89 68 78 90 88
65 65 74 61 47 65 90 100 100 100 100 94 86 100 100 100 100 90 90 82 92 100 95 97 97 100 100 96 89 85 93 92 87 86 87 88 89 94 96 98 95 87 87 79 96 97 94 100 100 88 89 82 97 100
71 68 63 67 54 81 100 100 100 100 100 100 86 99 99 98 100 100 92 85 94 100 100 99 96 100 100 100 100 100 100 94 84 86 88 84 82 85 90 99 100 98 86 87 100 100 100 100 98 81 77 88 92 90
70 77 77 67 73 96 100 100 100 100 100 100 94 98 100 100 100 100 100 100 100 98 97 100 100 100 100 100 100 100 100 100 95 92 99 100 100 100 97 82 81 100 100 100 98 100 92 92 84 70 81 92 86 76
86 78 73 61 84 99 100 100 100 100 100 97 94 95 100 100 100 100 100 100 100 100 100 100 100 100 100 100 99 100 100 100 100 100 100 100 100 100 100 100 100 100 90 74 76 76 66 72 78 88 96 92 84 91
83 79 59 81 100 100 100 100 100 100 100 100 95 97 100 100 100 100 100 100 100 100 100 100 100 100 100 100 99 98 99 100 100 100 100 100 100 98 77 85 100 93 73 66 64 65 68 74 72 84 90 98 94 87
92 78 59 99 100 100 100 100 100 100 100 100 96 96 100 100 100 100 100 100 100 100 100 100 100 100 100 100 100 100 100 100 100 100 100 100 97 76 67 80 98 75 72 74 66 64 74 82 95 96 88 86 81 70
75 76 65 84 100 100 100 100 100 100 99 100 94 82 88 100 99 100 100 100 100 90 90 100 100 100 100 100 100 100 100 100 97 87 80 86 88 90 95 100 98 91 83 80 80 78 82 90 93 88 77 66 68 70
88 78 56 75 100 100 100 99 96 100 98 100 100 99 78 68 90 100 98 98 96 98 98 100 100 100 98 98 94 92 86 83 85 98 100 99 100 99 95 95 91 87 90 94 98 97 93 86 70 64 68 71 78 74
55 53 66 76 100 100 100 94 100 100 100 100 98 95 100 95 79 79 86 80 85 94 95 95 97 100 97 95 94 97 100 100 100 100 93 91 92 91 93 94 94 89 78 76 77 74 70 69 70 71 74 74 72 74
40 42 57 80 87 92 95 100 100 100 100 98 99 100 100 99 88 74 77 80 75 70 70 75 93 98 100 100 99 84 82 84 86 90 95 90 97 94 87 80 75 69 66 65 62 64 69 71 73 73 75 80 93 98
27 32 39 74 96 95 99 98 100 100 100 100 86 85 95 100 100 100 94 95 98 100 100 100 100 100 100 100 96 95 90 80 70 74 72 73 78 79 79 75 70 68 66 68 71 72 74 80 83 88 93 97 96 93
41 38 43 64 95 100 100 99 94 97 100 100 99 97 98 92 85 82 87 90 100 100 100 97 93 92 96 95 92 92 89 85 84 83 82 85 89 85 79 78 79 77 77 80 86 95 97 99 100 100 100 98 95 95
61 68 70 83 97 100 100 100 96 93 100 100 96 99 100 100 99 99 100 100 100 98 97 95 93 97 99 93 92 85 86 86 82 85 86 83 76 73 77 80 82 86 90 90 96 100 94 87 89 85 90 90 76 64
58 63 76 79 95 100 100 100 100 100 100 100 97 96 95 96 94 99 100 100 100 96 96 96 99 100 100 98 98 92 90 86 85 84 79 80 82 84 86 85 87 87 90 88 79 89 95 95 85 70 65 64 51 45
58 62 72 85 87 93 99 100 100 100 100 99 91 88 83 80 79 84 87 85 87 90 92 97 95 92 92 93 97 100 99 96 87 83 83 83 83 80 83 82 78 77 78 83 71 60 50 46 41 39 36 38 37 22
59 61 67 68 84 97 97 93 87 87 85 87 88 80 81 87 92 89 92 99 99 91 92 95 94 90 87 89 98 95 83 77 77 81 85 83 84 78 74 70 61 59 54 44 40 35 31 26 17 17 17 14 12 11
60 60 63 64 68 73 79 84 90 98 99 98 96 100 100 100 97 96 92 93 94 94 90 86 86 88 94 94 93 88 85 88 92 88 81 74 68 65 68 69 57 46 34 26 21 18 16 12 10 10 10 10 10 9
48 48 56 58 57 64 64 66 64 64 68 73 77 80 82 85 87 90 93 98 99 97 90 89 95 98 99 96 93 91 91 86 76 73 69 68 63 58 52 39 32 23 17 14 13 12 11 10 10 10 10 10 9 7
38 42 45 46 47 49 50 58 59 51 49 54 60 69 70 68 67 73 80 84 86 88 90 87 81 79 75 68 57 56 58 59 56 42 30 26 25 26 22 17 14 12 12 11 10 10 9 8 8 8 7 5 5 6
40 33 36 31 35 34 39 45 38 40 41 44 44 45 48 48 45 47 51 52 50 51 60 60 46 39 37 36 32 28 26 25 19 16 15 14 14 12 11 10 10 9 8 7 7 6 6 6 5 4 4 6 6 5
46 44 45 40 44 44 48 40 36 32 30 32 33 32 31 30 30 29 26 28 30 29 24 21 19 19 18 17 18 17 15 14 13 12 11 10 10 9 8 8 7 7 6 6 6 6 5 4 5 6 6 5 4 4
30 29 32 34 30 25 30 30 31 30 33 34 29 27 27 27 26 25 30 35 28 22 20 19 18 18 16 14 13 12 11 10 9 8 7 7 7 7 6 6 6 6 6 6 5 5 5 5 5 4 4 4 4 4
26 25 24 27 32 32 26 26 25 25 25 24 21 20 22 22 21 20 21 23 20 16 15 14 13 11 10 10 9 9 8 8 7 6 7 7 6 6 6 7 7 6 5 5 5 5 5 4 4 4 3 3 3 3
19 19 18 16 21 20 21 20 21 21 18 16 14 14 15 14 12 12 12 13 11 10 10 9 8 9 8 8 8 7 7 7 7 8 7 8 8 7 7 5 4 4 5 5 5 4 4 3 3 3 3 3 3 3
13 12 13 12 11 12 11 11 11 11 10 10 10 11 10 10 9 8 9 9 8 7 7 7 7 7 7 7 6 7 8 7 7 6 6 6 5 4 4 5 5 4 4 4 4 4 3 3 3 3 3 3 3 3
8 8 8 8 8 8 9 9 8 8 7 7 7 7 8 7 7 7 7 6 6 6 6 6 6 7 7 7 6 6 6 6 6 5 5 5 5 4 4 4 4 4 3 3 3 3 3 3 3 3 3 3 3 2
8 7 7 6 6 6 7 6 6 6 6 6 6 6 6 6 6 6 6 6 6 6 6 6 6 6 6 6 6 6 5 5 4 4 4 4 3 3 3 3 3 3 3 3 3 3 3 4 3 3 2 2 2 2
5 5 6 5 6 6 6 6 6 6 6 6 6 6 6 6 6 6 6 6 6 6 6 6 6 6 5 4 4 4 3 3 3 3 3 3 3 3 3 3 3 3 3 3 4 4 3 3 3 3 2 3 3 3
6 5 5 5 5 5 4 4 4 4 4 4 4 4 4 4 4 4 4 3 3 3 3 3 3 3 3 3 3 3 3 3 3 3 3 3 3 3 3 3 3 3 3 3 3 3 3 3 2 3 3 4 3 3
4 3 3 3 3 3 3 3 3 3 3 3 3 3 2 2 2 2 2 3 3 3 3 3 3 3 3 3 3 3 3 3 3 3 3 3 3 3 3 3 3 2 2 2 2 2 2 2 3 3 3 2 2 2
3 3 3 3 3 2 2 2 2 2 2 2 2 2 2 2 2 2 2 2 2 3 3 3 3 3 3 3 3 3 3 3 3 3 3 3 3 2 2 2 2 2 2 2 2 2 2 3 2 2 2 2 1 1
2 2 2 2 2 2 2 2 2 2 2 2 2 2 2 2 3 3 3 3 3 3 3 3 3 3 3 3 3 3 3 3 3 2 2 2 2 2 2 2 2 2 2 2 2 2 2 2 2 2 1 1 1 2

GFSWCAN_250_rhum_030.txt.gz
RH
4 4 5 6 6 7 8 10 11 12 14 16 17 20 23 25 32 40 47 74 90 94 100 88 72 71 71 94 88 65 62 66 53 50 56 64 65 68 67 66 68 66 66 65 67 71 61 62 64 75 89 95 93 93
6 7 7 8 9 11 12 14 15 15 15 16 19 23 28 32 37 42 73 92 91 91 100 78 70 71 76 91 85 64 62 73 77 60 50 63 75 70 64 67 62 64 58 64 67 69 65 71 78 74 66 75 100 99
10 11 12 13 14 14 15 17 19 20 20 21 27 36 37 40 43 70 94 92 91 96 95 77 68 70 71 83 82 70 69 67 66 61 64 64 59 64 62 62 66 73 71 73 76 86 67 68 62 75 100 100 87 72
19 19 23 30 37 37 32 34 34 35 36 36 42 45 46 50 80 96 99 100 95 99 95 78 67 71 74 89 86 81 78 71 65 68 68 75 85 94 96 94 100 95 77 70 80 86 87 96 97 100 98 67 66 63
49 55 59 61 63 58 62 64 67 70 77 66 53 57 76 92 100 93 100 100 94 96 96 76 67 80 97 99 98 98 94 91 91 89 89 97 100 100 100 100 100 100 100 100 100 100 98 100 99 89 81 65 64 56
74 71 74 79 69 69 70 75 84 80 66 54 55 81 97 100 100 87 100 100 93 97 96 70 66 85 100 100 100 100 100 100 100 100 100 100 100 95 86 88 100 100 93 84 79 77 75 73 76 77 60 59 56 57
86 78 83 80 60 64 80 91 87 65 54 64 90 100 100 100 100 95 100 100 100 100 90 69 65 84 98 99 100 100 100 100 96 99 100 100 99 89 88 94 100 100 100 100 100 95 84 70 65 67 63 68 71 72
100 100 98 100 79 87 78 74 70 66 73 95 85 99 100 100 100 84 97 100 98 98 75 64 68 86 98 99 98 99 100 100 100 99 95 96 94 100 100 100 100 100 90 79 69 65 66 68 68 70 70 69 65 64
100 100 100 100 80 89 88 88 98 90 90 100 100 100 99 93 89 84 92 100 100 100 78 63 70 86 92 95 97 95 98 95 95 95 100 99 100 100 100 100 100 89 83 76 76 74 77 78 76 70 66 67 75 79
90 94 99 100 100 95 98 100 97 100 100 100 100 100 100 100 99 82 86 100 100 100 93 76 73 71 76 82 85 87 90 92 97 100 100 100 100 100 99 94 94 87 79 83 84 83 76 73 75 81 85 84 80 85
100 95 97 100 90 99 100 100 95 95 96 99 100 100 100 96 97 92 81 87 96 100 100 100 100 100 100 100 100 100 100 100 88 98 100 98 98 94 90 88 87 86 83 76 73 74 77 80 88 87 86 86 81 79
82 98 100 100 100 98 80 89 93 89 95 99 100 100 100 100 96 98 93 99 100 98 100 100 100 100 100 100 98 94 93 92 92 100 94 94 100 97 88 81 79 78 76 76 85 91 90 88 89 85 79 74 81 88
94 97 100 100 100 100 100 95 88 94 89 98 97 95 93 85 78 83 98 100 100 100 99 96 95 92 88 81 78 79 74 74 81 85 92 95 85 78 75 75 77 93 98 95 92 98 98 85 77 76 87 96 95 83
96 88 84 89 100 100 100 98 97 94 88 89 95 91 83 86 84 86 93 93 92 100 100 100 95 89 91 96 96 100 98 95 92 89 84 75 74 82 88 84 80 87 99 99 92 80 76 80 85 90 94 80 72 75
85 91 93 92 81 85 93 94 99 100 88 80 80 84 92 95 97 96 94 92 93 93 94 98 100 99 97 90 88 82 77 76 81 84 85 85 81 81 88 91 88 80 80 76 70 70 70 73 74 73 74 72 67 62
86 80 74 85 94 86 92 98 99 98 98 89 86 94 98 98 100 100 100 94 91 96 92 90 91 92 88 85 88 90 88 85 86 91 92 90 86 80 79 83 79 72 64 63 61 63 65 66 66 64 57 51 45 38
86 80 81 80 81 84 86 88 92 100 99 100 92 88 89 85 82 92 97 89 90 93 97 97 99 98 94 95 96 92 90 86 84 80 77 82 85 81 75 66 63 59 60 61 63 62 68 62 54 41 30 30 25 23
70 68 67 65 72 79 78 84 100 100 100 100 100 100 100 99 99 92 84 87 90 87 85 84 86 86 84 84 85 86 85 80 78 76 79 76 70 65 65 64 65 62 61 69 64 59 50 41 36 36 33 22 16 13
60 59 54 52 62 71 68 69 82 97 100 100 100 100 100 100 98 92 91 95 95 95 92 85 78 79 78 81 86 87 84 77 76 77 74 72 70 72 73 70 72 65 63 58 49 41 36 31 26 16 12 10 8 7
41 42 50 48 52 56 54 59 66 61 64 81 97 96 83 76 78 82 88 89 90 92 94 88 82 80 80 79 73 69 72 74 73 71 76 81 83 79 70 61 56 46 45 44 36 28 20 15 12 9 7 7 6 6
32 30 32 35 38 43 48 36 41 45 48 54 64 68 70 77 79 80 81 86 85 82 78 76 72 69 68 69 68 67 67 69 72 68 68 61 43 39 40 39 38 34 32 21 16 14 11 9 7 6 6 6 6 6
28 24 27 29 34 46 40 34 37 34 35 39 48 51 52 55 57 58 58 57 56 56 56 57 64 68 66 66 67 62 57 52 46 40 36 34 37 35 30 24 17 15 13 12 10 8 7 6 6 6 6 6 6 5
21 23 23 25 25 35 47 45 38 30 30 33 36 36 36 37 39 42 46 49 51 54 56 57 56 50 48 48 47 40 34 31 30 29 28 22 18 16 14 12 11 10 9 8 7 6 6 6 6 6 6 4 3 3
16 16 18 17 17 19 23 27 28 30 31 32 34 34 33 37 43 44 47 46 45 41 41 40 38 35 32 29 29 26 23 19 18 16 13 12 11 11 9 8 8 8 7 7 6 6 5 5 5 4 3 3 3 3
12 12 12 12 12 12 12 14 16 17 19 22 22 22 24 26 26 28 29 28 27 26 26 24 22 22 20 17 14 14 13 11 10 10 9 8 8 7 6 6 7 6 6 5 5 4 4 4 3 3 3 3 3 3
8 9 9 9 9 9 9 9 10 10 10 11 13 14 14 14 14 15 14 13 12 12 13 13 13 12 11 11 10 9 8 8 7 6 6 6 6 6 6 6 5 4 4 3 3 3 3 3 3 3 3 3 3 3
9 10 10 9 9 10 9 9 9 9 9 10 10 10 10 11 11 11 11 10 10 10 10 10 9 9 8 7 6 6 5 5 5 5 5 5 4 4 3 3 3 3 3 3 3 3 3 3 3 3 3 3 3 2
8 9 8 8 8 9 9 9 9 9 9 8 9 9 9 8 8 8 8 8 7 7 6 6 6 5 5 5 5 5 5 4 3 3 3 3 3 3 3 3 3 3 3 3 3 3 3 3 3 3 2 2 2 2
6 6 6 6 6 6 6 6 6 6 6 6 6 6 6 5 5 4 4 4 4 4 5 5 5 4 4 4 3 3 3 3 3 3 2 2 2 2 2 3 3 3 3 3 3 3 3 2 2 2 2 2 2 2
5 4 4 4 4 4 4 4 4 4 4 4 4 4 4 4 4 4 4 4 4 4 3 3 3 3 3 2 2 2 2 2 2 2 2 2 2 3 3 3 3 3 3 2 2 2 2 2 2 2 2 2 2 2
5 5 4 4 4 4 4 4 3 3 3 3 3 3 3 3 3 3 3 3 3 2 2 2 2 2 2 2 2 2 2 2 2 3 3 3 3 3 3 2 2 2 2 2 2 2 2 2 2 2 2 2 2 2
3 3 3 3 3 3 3 3 3 2 2 2 2 2 2 2 2 2 2 2 2 2 2 2 2 2 2 2 3 3 3 3 3 3 2 2 2 2 2 2 2 2 2 2 2 2 2 2 2 2 2 2 2 2
3 3 3 3 2 2 2 2 2 2 2 2 2 2 2 2 2 2 2 2 2 3 3 3 3 3 3 3 2 2 2 2 2 2 2 2 2 2 2 2 2 2 2 2 2 2 2 2 2 2 2 2 2 2

GFSWCAN_250_rhum_033.txt.gz
RH
2 2 2 2 2 3 3 3 4 4 5 7 9 11 13 15 16 16 26 27 36 72 76 84 78 94 100 97 79 60 64 62 61 66 59 54 53 58 68 72 82 84 86 87 87 84 82 82 80 94 82 73 68 70
3 3 3 3 3 4 4 4 5 6 7 8 10 12 12 13 16 19 25 28 60 72 72 83 81 100 100 86 71 62 72 60 59 75 64 60 53 57 68 75 70 79 78 84 81 74 66 62 65 60 68 80 87 86
4 4 4 4 4 5 6 7 7 7 8 9 11 13 15 16 19 21 46 47 66 59 68 77 82 100 97 88 70 62 90 84 90 87 70 64 62 60 63 77 72 72 65 67 74 72 56 56 57 74 82 80 81 78
6 6 6 7 7 8 8 9 10 11 12 13 14 15 16 18 21 25 51 57 52 56 66 94 92 100 96 86 68 70 100 100 99 92 80 83 82 76 70 72 78 72 60 58 66 71 79 81 85 86 68 66 69 75
10 11 11 10 10 12 13 14 16 16 16 18 21 23 24 24 27 36 48 52 53 54 72 85 100 100 95 80 69 85 100 100 98 85 80 91 97 94 86 71 65 71 78 83 89 100 94 83 74 73 77 85 86 75
18 15 15 15 17 17 16 18 20 21 24 24 24 25 27 33 39 41 50 50 58 59 84 87 100 96 90 74 73 80 100 100 96 82 78 79 85 85 84 89 92 100 100 100 94 78 75 77 84 92 100 92 87 81
54 55 47 42 36 32 33 34 34 33 40 42 46 57 51 46 49 56 68 68 64 88 100 99 99 91 81 72 71 72 77 90 93 86 84 86 91 92 91 100 100 100 99 89 87 86 83 89 86 90 74 64 60 61
99 88 92 88 75 71 72 67 62 62 55 60 68 66 59 50 55 58 64 77 85 100 100 96 93 90 79 71 69 71 73 88 93 98 98 99 99 99 97 100 96 93 92 96 96 95 94 97 92 66 57 61 68 72
98 100 98 100 100 100 96 88 80 77 79 80 71 68 63 65 69 72 88 81 86 91 100 99 99 99 87 76 70 75 86 92 96 97 98 98 100 98 100 100 97 92 90 86 82 86 88 79 66 64 69 79 82 78
86 88 94 85 88 96 97 96 88 82 70 63 58 65 75 90 98 100 88 93 81 80 100 100 100 100 95 83 68 70 83 87 86 95 98 93 94 100 99 93 89 87 86 87 88 83 78 75 77 85 86 78 70 66
100 84 98 92 91 92 91 90 77 71 77 88 98 100 97 93 82 83 87 89 86 82 98 100 100 100 100 95 74 63 66 79 84 89 88 91 97 92 88 89 93 92 91 86 82 78 80 85 85 79 69 72 90 91
96 99 86 84 87 90 85 78 86 94 99 100 100 100 96 100 90 78 88 100 100 100 100 100 100 100 98 93 78 65 66 73 77 80 81 83 94 99 100 91 82 79 78 83 84 87 89 82 73 79 89 92 91 90
99 94 97 91 78 86 83 76 94 100 100 100 99 98 92 95 88 87 100 100 100 100 93 84 85 97 100 99 97 89 83 89 98 99 100 100 100 100 90 83 84 86 86 90 93 85 81 85 88 91 96 94 84 75
100 100 100 100 100 97 85 82 92 91 91 100 100 93 86 84 90 99 98 99 99 96 97 97 95 89 75 65 60 64 64 67 67 79 95 97 91 90 89 92 97 96 92 82 86 86 93 100 100 92 81 74 76 75
92 91 98 100 100 100 100 83 80 83 85 79 78 87 98 100 100 100 100 100 99 99 97 98 99 99 98 93 92 88 88 93 99 100 95 91 89 91 92 93 89 81 84 98 100 100 96 86 78 71 71 69 64 56
100 96 91 94 94 100 100 100 98 85 79 78 80 80 86 100 98 97 95 93 94 94 92 91 91 91 94 99 100 99 95 96 99 100 99 97 94 83 76 84 94 98 98 95 91 85 77 70 66 61 61 55 52 49
98 91 88 84 87 87 93 100 100 96 84 76 84 91 89 84 86 93 98 99 99 100 99 92 90 89 87 84 85 89 88 87 89 89 88 88 85 81 84 91 92 88 84 77 74 71 68 60 62 56 49 50 45 35
89 82 80 81 76 84 83 83 87 94 96 84 82 97 100 100 100 96 87 88 93 94 91 87 86 85 88 88 90 91 92 91 87 83 82 83 86 87 83 76 70 67 68 68 64 64 63 59 58 47 41 40 30 31
95 89 81 92 86 79 91 86 82 88 92 95 99 98 93 97 100 99 96 94 94 98 100 100 99 100 100 99 95 93 92 91 87 84 84 81 76 71 70 69 67 63 60 61 59 54 53 48 39 36 35 30 28 19
91 90 82 76 81 74 64 69 72 72 72 82 83 88 91 93 95 94 94 93 90 89 89 89 89 86 85 80 78 76 71 66 63 62 61 62 67 70 70 66 57 59 61 58 51 42 38 33 36 31 27 20 14 11
68 62 63 62 64 75 74 63 56 54 58 65 70 69 65 70 80 80 85 86 78 72 71 75 70 59 59 64 65 64 67 71 74 72 73 71 64 61 61 58 54 53 46 37 37 34 28 30 24 18 12 11 9 7
47 45 41 44 47 50 52 56 53 50 47 45 48 49 50 54 61 65 65 60 58 59 61 62 62 62 60 58 57 53 50 48 47 46 50 54 58 58 46 38 36 34 31 29 26 26 21 15 12 10 8 7 6 6
36 40 40 33 32 34 38 37 46 47 43 41 39 40 42 41 39 35 33 32 31 30 34 36 39 39 38 38 39 38 41 42 44 45 41 36 35 35 34 32 30 28 25 20 16 13 11 9 7 7 6 6 5 4
22 25 20 20 20 24 30 30 30 31 35 40 42 45 42 37 37 36 34 31 33 37 38 37 37 39 39 37 36 35 35 35 34 32 32 31 30 27 26 25 21 14 11 10 9 8 6 6 6 5 4 4 3 3
11 12 12 14 14 14 15 16 17 21 26 31 31 32 33 30 31 33 31 28 26 24 23 24 25 26 26 26 27 28 28 30 30 27 23 20 17 15 12 10 9 8 7 6 6 6 5 4 4 3 3 3 3 3
9 10 9 10 11 11 11 10 11 11 13 16 19 19 19 20 25 27 23 22 22 21 22 23 24 24 24 23 22 20 19 18 17 16 13 11 9 8 7 6 6 6 6 5 4 3 3 3 3 3 3 3 3 3
7 8 9 10 10 10 10 10 10 10 10 10 11 11 12 13 14 14 15 16 16 15 15 16 18 18 17 15 13 12 11 10 9 8 7 6 5 5 5 4 4 3 3 3 3 3 2 2 3 3 3 3 3 3
7 8 8 8 9 9 9 9 9 9 9 10 10 10 10 10 10 10 9 9 9 9 9 9 9 8 8 8 7 7 6 5 5 5 4 4 4 3 3 3 3 2 2 3 3 3 3 3 3 3 3 2 2 2
6 7 6 6 6 6 6 6 6 6 6 6 6 6 6 5 5 5 5 5 5 5 5 5 5 5 5 4 4 4 4 4 4 3 3 3 3 3 2 2 2 3 3 3 3 3 2 2 2 2 2 2 2 2
5 5 5 5 5 4 4 4 4 4 4 4 4 4 5 5 5 5 4 4 4 4 4 4 4 3 3 3 3 3 3 3 2 2 2 2 2 2 2 3 3 2 2 2 2 2 2 2 2 2 2 2 2 2
4 4 4 4 4 4 4 4 4 4 4 4 4 4 4 4 4 4 3 3 3 3 3 3 2 2 2 2 2 2 2 2 2 2 2 2 2 2 2 2 2 2 2 2 2 2 2 2 2 2 2 2 2 2
4 4 4 4 4 4 3 3 3 3 3 3 3 3 3 3 2 2 2 2 2 2 2 2 2 2 2 2 2 2 2 2 2 2 2 2 2 2 2 2 2 2 2 2 2 2 2 2 2 2 2 1 1 2
3 3 3 3 3 3 2 2 2 2 2 2 2 2 2 2 2 2 2 2 2 2 2 2 2 2 2 2 2 2 2 2 2 2 2 2 2 2 2 2 2 1 1 1 1 1 1 1 1 1 1 1 2 2

GFSWCAN_250_rhum_036.txt.gz
RH
1 1 1 1 1 1 1 2 2 2 2 2 3 3 4 9 12 16 21 21 28 44 51 57 49 48 66 100 100 100 95 81 86 57 45 48 38 50 49 51 55 63 67 70 82 82 86 90 89 92 85 92 93 85
2 1 1 1 1 1 2 2 2 2 3 3 3 4 8 13 18 21 28 28 34 52 63 48 35 51 72 94 96 100 99 82 86 57 49 65 62 54 54 55 55 69 79 87 94 84 83 90 92 84 99 92 82 76
2 2 2 2 2 2 2 2 3 3 3 4 6 7 11 15 19 27 22 45 100 100 88 65 48 54 96 99 100 100 92 90 97 63 53 68 64 60 60 56 51 61 79 84 97 78 75 86 70 82 84 72 78 95
3 3 3 3 3 3 3 3 3 4 4 5 7 10 13 18 25 23 19 60 80 96 100 48 44 73 98 98 100 95 87 95 86 68 60 65 61 67 67 59 58 54 76 71 95 83 82 65 71 78 65 88 100 96
4 4 4 4 4 4 4 4 4 5 6 8 10 12 16 19 19 19 28 73 86 75 42 42 48 87 99 100 100 94 92 100 90 70 65 70 70 81 71 67 68 74 66 69 62 90 85 59 59 78 100 100 97 74
7 6 6 6 5 6 6 6 6 7 9 10 13 16 19 22 23 24 26 27 50 62 45 42 63 93 100 100 100 94 82 100 84 71 79 97 85 82 88 93 91 100 94 96 88 76 63 68 100 98 92 74 71 80
11 10 10 9 8 8 9 9 9 10 12 14 15 17 19 20 21 24 32 48 59 52 35 57 85 96 100 95 91 89 88 98 85 72 89 100 94 91 92 90 100 99 95 92 73 64 78 89 96 84 74 82 82 85
22 20 20 18 16 15 16 16 15 16 17 16 16 18 20 22 23 28 34 39 48 42 52 68 81 88 83 85 88 90 99 99 85 73 84 97 98 98 87 92 98 94 92 89 96 93 87 84 82 82 80 84 99 100
46 35 30 28 27 26 26 24 22 22 21 22 24 25 26 23 27 34 40 46 50 49 60 74 89 85 89 88 97 89 93 97 84 73 72 85 95 95 100 95 93 89 94 100 97 91 84 82 84 86 93 99 88 76
100 84 77 55 40 36 41 54 57 42 41 39 37 41 42 44 45 47 58 60 83 89 91 85 84 83 82 91 97 99 98 91 79 72 71 71 73 79 87 100 96 92 90 83 83 86 89 91 91 99 99 86 78 77
95 98 98 95 91 86 80 62 50 47 58 54 46 46 50 52 51 58 71 79 66 71 67 76 79 79 92 99 100 96 89 85 80 74 70 69 71 81 90 86 83 83 83 78 82 87 89 96 100 92 81 79 84 83
90 83 80 85 94 96 99 100 92 81 76 71 71 62 64 60 67 88 89 84 71 73 76 68 85 100 100 100 100 100 99 96 90 85 79 72 75 80 83 84 85 85 87 90 88 89 98 92 81 80 87 86 79 81
99 96 99 94 93 100 99 91 99 100 100 98 99 93 82 81 89 97 92 88 95 94 98 100 100 98 98 100 100 100 94 88 88 88 90 97 97 76 69 68 73 79 80 84 88 90 85 84 90 89 87 92 93 80
91 92 99 100 99 100 99 96 98 99 98 98 100 100 99 100 100 100 100 97 91 83 87 91 99 99 98 96 91 84 77 77 79 91 100 100 100 99 90 82 84 90 99 98 92 89 90 95 94 95 94 84 88 88
100 100 100 100 100 99 100 100 100 100 100 100 98 97 100 100 100 100 100 96 96 98 98 99 99 99 99 96 95 89 83 79 78 80 91 90 86 83 82 86 91 94 90 91 96 96 95 96 93 83 83 82 88 88
100 100 99 99 90 93 100 100 100 100 100 100 100 100 100 100 100 100 98 94 95 92 92 94 95 95 95 96 100 96 89 89 99 96 96 96 95 91 91 90 92 97 98 98 95 89 83 82 84 89 94 89 82 73
98 97 94 93 99 100 96 85 93 100 100 100 100 100 100 100 100 100 100 100 100 100 100 98 96 91 86 84 87 94 97 97 95 94 91 92 92 98 100 97 90 84 81 84 88 84 84 90 89 86 81 70 58 62
98 100 100 98 93 95 94 90 83 73 71 81 90 98 100 100 100 100 100 100 100 100 100 100 99 98 96 91 92 87 84 82 82 81 81 85 89 91 90 91 91 91 87 85 90 89 81 68 64 60 56 55 50 50
90 95 92 89 85 86 85 87 85 88 82 74 64 66 78 83 87 94 100 100 99 99 99 98 97 96 93 90 88 89 90 92 94 94 93 90 90 93 92 90 88 86 80 71 63 61 60 58 54 51 50 47 42 37
81 83 96 92 86 87 86 87 86 85 76 89 94 91 78 67 62 66 76 83 82 83 85 82 79 78 81 80 77 79 84 89 92 92 94 98 96 91 82 72 63 60 58 55 52 49 48 49 49 45 39 32 28 24
76 69 74 72 72 74 68 65 64 73 74 71 72 78 76 72 65 64 64 62 66 69 65 68 74 79 82 82 82 81 78 75 73 70 66 64 62 59 55 50 48 49 51 49 46 43 42 39 35 32 29 21 16 15
78 75 80 79 78 82 69 65 72 66 59 59 59 60 62 66 69 68 65 63 63 66 61 56 54 55 57 60 62 62 61 58 54 50 46 46 46 45 44 43 42 39 42 42 40 35 31 27 25 20 16 13 12 11
52 58 63 62 70 66 68 65 60 60 64 61 58 54 50 50 50 50 50 56 67 67 64 64 63 62 61 58 52 50 50 49 44 39 39 43 46 47 47 44 39 36 31 26 22 20 18 15 13 11 11 11 11 9
34 37 41 44 54 56 55 51 50 53 55 48 52 54 57 59 55 46 42 38 37 36 43 54 61 65 60 56 53 49 46 43 40 38 36 31 26 25 25 22 20 19 17 15 14 11 10 9 9 9 9 8 6 5
26 23 22 22 22 23 24 26 26 32 36 34 32 35 34 34 39 40 36 33 31 27 26 28 29 30 30 29 28 27 26 24 22 20 19 18 17 15 14 13 12 11 10 9 8 9 8 8 7 6 6 5 4 3
12 15 14 13 12 12 12 12 13 15 16 16 18 20 20 22 22 25 26 26 26 27 25 23 22 19 17 16 16 16 16 14 13 11 12 11 10 9 8 8 7 7 7 8 8 7 6 5 4 4 3 3 3 3
6 7 6 7 8 9 10 11 12 13 13 14 13 13 12 11 11 13 13 13 14 15 17 17 16 14 12 12 11 10 10 10 9 9 9 8 8 7 7 6 7 6 6 5 4 4 3 3 3 2 3 3 3 3
6 6 6 7 7 8 8 8 8 8 8 8 8 8 8 8 8 8 8 8 8 8 8 8 8 8 9 9 9 9 9 8 8 7 7 6 6 5 5 4 4 3 3 3 3 2 2 2 3 3 3 3 3 3
5 5 5 4 5 5 5 5 5 6 6 6 6 6 6 6 6 6 6 7 7 7 7 7 7 7 7 6 6 6 6 5 5 4 4 4 4 3 3 3 3 2 2 2 2 3 3 3 3 3 2 2 2 2
4 4 4 4 4 4 4 4 4 4 4 4 4 4 4 5 5 5 5 5 4 4 4 4 4 4 4 4 4 4 3 3 3 3 2 2 2 2 2 2 2 3 3 3 3 2 2 2 2 2 2 2 2 2
3 3 4 4 4 4 4 4 4 4 4 4 4 4 4 4 4 4 4 4 3 3 3 3 3 3 3 2 2 2 2 2 2 2 2 2 2 3 3 3 3 2 2 2 2 2 1 1 1 1 1 1 1 2
4 4 4 4 4 3 3 3 3 3 3 3 3 3 3 3 3 3 3 3 2 2 2 2 2 2 2 2 2 2 3 3 3 3 2 2 2 2 2 2 1 1 1 1 1 1 1 1 1 1 1 1 1 1
4 4 3 3 3 3 3 3 3 2 2 2 2 2 2 2 2 2 2 2 2 2 2 2 2 3 3 3 3 2 2 2 2 2 2 1 1 1 1 1 1 1 1 1 1 1 1 1 1 1 1 1 1 1